This is the latest recevied weather packets stored in our database for station/object K5YNC. If no packets are shown the sender has not sent any weather packets the latest 10 day(s).
| Time | Temp. | Humidity | Pressure | Rain* | Wind** | Luminosity | Snow |
|---|---|---|---|---|---|---|---|
| 1777825484 | 25° C | 46% | 1022 hPa | 0 mm | - | 677 W/m² | - |
| 1777825182 | 24.44° C | 46% | 1022.1 hPa | 0 mm | - | 665 W/m² | - |
| 1777824878 | 24.44° C | 46% | 1022.1 hPa | 0 mm | - | 658 W/m² | - |
| 1777824574 | 24.44° C | 47% | 1022.1 hPa | 0 mm | - | 645 W/m² | - |
| 1777824272 | 23.89° C | 47% | 1022.1 hPa | 0 mm | - | 632 W/m² | - |
| 1777823967 | 23.89° C | 48% | 1022.3 hPa | 0 mm | - | 620 W/m² | - |
| 1777823664 | 24.44° C | 47% | 1022 hPa | 0 mm | - | 606 W/m² | - |
| 1777823361 | 23.89° C | 47% | 1022 hPa | 0 mm | - | 592 W/m² | - |
| 1777823059 | 24.44° C | 48% | 1022.2 hPa | 0 mm | - | 578 W/m² | - |
| 1777822757 | 23.33° C | 48% | 1022.4 hPa | 0 mm | - | 564 W/m² | - |
| 1777822455 | 23.33° C | 49% | 1022.1 hPa | 0 mm | - | 550 W/m² | - |
| 1777822152 | 22.78° C | 50% | 1022 hPa | 0 mm | - | 535 W/m² | - |
| 1777821849 | 22.78° C | 50% | 1022.3 hPa | 0 mm | - | 520 W/m² | - |
| 1777821546 | 22.78° C | 50% | 1022.1 hPa | 0 mm | - | 505 W/m² | - |
| 1777821244 | 22.78° C | 51% | 1022.4 hPa | 0 mm | - | 489 W/m² | - |
| 1777820941 | 22.22° C | 53% | 1022.3 hPa | 0 mm | - | 474 W/m² | - |
| 1777820637 | 21.67° C | 51% | 1022.4 hPa | 0 mm | - | 459 W/m² | - |
| 1777820333 | 21.11° C | 53% | 1022.1 hPa | 0 mm | - | 444 W/m² | - |
| 1777820032 | 21.11° C | 52% | 1022.2 hPa | 0 mm | - | 427 W/m² | - |
| 1777819728 | 21.67° C | 52% | 1022.3 hPa | 0 mm | - | 413 W/m² | - |
| 1777819426 | 21.67° C | 52% | 1022.1 hPa | 0 mm | - | 399 W/m² | - |
| 1777819123 | 21.11° C | 53% | 1021.9 hPa | 0 mm | - | 382 W/m² | - |
| 1777818820 | 21.11° C | 52% | 1022 hPa | 0 mm | - | 368 W/m² | - |
| 1777818516 | 20.56° C | 52% | 1022.2 hPa | 0 mm | - | 352 W/m² | - |
| 1777818214 | 21.11° C | 50% | 1022 hPa | 0 mm | - | 337 W/m² | - |
* Rain latest hour (hover to see other rain measurements)
** Current wind speed in m/s (hover to see current wind gust speed)